Probability
0 0 0 0 0 0 0 0 0 0 0 0 0 0 0 0 0 0 0 0 0 0 0 0 0 0 0 0 0 0 0 0 0 0 0 0 0 0 0 0 0 0 0 0
0 0 0 0 0 0 0 0 0 0 0 0 0 0 0 0 0 0 0 0 0 0 0 0 0 0 0 0 0 0 0 0 0 0 0 0 0 0 0 0 0 0 0 0
0 0 0 0 0 0 0 0 0 0 0 0 0 0 0 0 0 0 0 0 0 0 0 0 0 0 0 0 0 0 0 0 0 0 0 0 0 0 0 0 0 0 0 0
0 0 0 0 0 0 0 0 0 0 0 0 0 0 0 0 0 0 0 0 0 0 0 0 0 0 0 0 0 0 0 0 0 0 0 0 0 0 0 0 0 0 0 0
0 0 0 0 0 0 0 0 0 0 0 0 0 0 0 0 0 0 0 0 0 0 0 0 0 0 0 0 0 0 0 0 0 0 0 0 0 0 0 0 0 0 0 0
0 0 0 0 0 0 0 0 0 0 0 0 0 0 0 0 0 0 0 0 0 0 0 0 0 0 0 0 0 0 0 0 0 0 0 0 0 0 0 0 0 0 0 0
0 0 0 0 0 0 0 0 0 0 0 0 0 0 0 0 0 0 0 0 0 0 0 0 0 0 0 0 0 0 0 0 0 0 0 0 0 0 0 0 0 0 0 0
0 0 0 0 0 0 0 0 0 0 0 0 0 0 0 0 0 0 0 0 0 0 0 0 0 0 0 0 0 0 0 0 0 0 0 0 0 0 0 0 0 0 0 0
0 0 0 0 0 0 0 0 0 0 0 0 0 0 0 0 0 0 0 0 0 0 0 0 0 0 0 0 0 0 0 0 0 0 0 0 0 0 0 0 0 0 0 0
0 0 0 0 0 0 0 0 0 0 0 0 0 0 0 0 0 0 0 0 0 0 0 0 0 0 0 0 0 0 0 0 0 0 0 0 0 0 0 0 0 0 0 0
0 0 0 0 0 0 0 0 0 0 0 0 0 0 0 0 0 0 0 0 0 0 0 0 0 0 0 0 0 0 0 0 0 0 0 0 0 0 0 0 0 0 0 0
0 0 0 0 0 0 0 0 0 0 0 0 0 0 0 0 0 0 0 0 0 0 0 0 0 0 0 0 0 0 0 0 0 0 0 0 0 0 0 0 0 0 0 0
0 0 0 0 0 0 0 0 0 0 0 0 0 0 0 0 0 0 0 0 0 0 0 0 0 0 0 0 0 0 0 0 0 0 0 0 0 0 0 0 0 0 0 0
0 0 0 0 0 0 0 0 0 0 0 0 0 0 0 0 0 0 0 0 0 0 0 0 0 0 0 0 0 0 0 0 0 0 0 0 0 0 0 0 0 0 0 0
0 0 0 0 0 0 0 0 0 0 0 0 0 0 0 0 0 0 0 0 0 0 0 0 0 0 0 0 0 0 0 0 0 0 0 0 0 0 0 0 0 0 0 0
0 0 0 0 0 0 0 0 0 0 0 0 0 0 0 0 0 0 0 0 0 0 0 0 0 0 0 0 0 0 0 0 0 0 0 0 0 0 0 0 0 0 0 0
0 0 0 0 0 0 0 0 0 0 0 0 0 0 0 0 0 0 0 0 0 0 0 0 0 0 0 0 0 0 0 0 0 0 0 0 0 0 0 0 0 0 0 0
0 0 0 0 0 0 0 0 0 0 0 0 0 0 0 0 0 0 0 0 0 0 0 0 0 0 0 0 0 0 0 0 0 0 0 0 0 0 0 0 0 0 0 0
0 0 0 0 0 0 0 0 0 0 0 0 0 0 0 0 0 0 0 0 0 0 0 0 0 0 0 0 0 0 0 0 0 0 0 0 0 0 0 0 0 0 0 0
0 0 0 0 0 0 0 0 0 0 0 0 0 0 0 0 0 0 0 0 0 0 0 0 0 0 0 0 0 0 0 0 0 0 0 0 0 0 0 0 0 0 0 0
0 0 0 0 0 0 0 0 0 0 0 0 0 0 0 0 0 0 0 0 0 0 0 0 0 0 0 0 0 0 0 0 0 0 0 0 0 0 0 0 0 0 0 0
0 0 0 0 0 0 0 0 0 0 0 0 0 0 0 0 0 0 0 0 0 0 0 0 0 0 0 0 0 0 0 0 0 0 0 0 0 0 0 0 0 0 0 0
0 0 0 0 0 0 0 0 0 0 0 0 0 0 0 0 0 0 0 0 0 0 0 0 0 0 0 0 0 0 0 0 0 0 0 0 0 0 0 0 0 0 0 0
0 0 0 0 0 0 0 0 0 0 0 0 0 0 0 0 0 0 0 0 0 0 0 0 0 0 0 0 0 0 0 0 0 0 0 0 0 0 0 0 0 0 0 0
0 0 0 0 0 0 0 0 0 0 0 0 0 0 0 0 0 0 0 0 0 0 0 0 0 0 0 0 0 0 0 0 0 0 0 0 0 0 0 0 0 0 0 0
0 0 0 0 0 0 0 0 0 0 0 0 0 0 0 0 0 0 0 0 0 0 0 0 0 0 0 0 0 0 0 0 0 0 0 0 0 0 0 0 0 0 0 0
0 0 0 0 0 0 0 0 0 0 0 0 0 0 0 0 0 0 0 0 0 0 0 0 0 0 0 0 0 0 0 0 0 0 0 0 0 0 0 0 0 0 0 0
Height
5597 5606 5613 5620 5627 5632 5637 5645 5651 5660 5665 5672 5676 5679 5682 5685 5687 5689 5692 5694 5696 5697 5697 5698 5698 5698 5698 5698 5698 5697 5697 5696 5695 5694 5693 5691 5690 5688 5686 5684 5682 5680 5678 5675
5586 5594 5601 5607 5614 5621 5628 5636 5642 5649 5655 5664 5666 5669 5672 5675 5678 5681 5683 5685 5687 5688 5689 5689 5690 5690 5690 5689 5689 5688 5688 5687 5686 5685 5683 5682 5681 5679 5677 5675 5673 5670 5668 5665
5576 5584 5588 5593 5605 5612 5619 5627 5633 5638 5649 5654 5656 5659 5662 5666 5668 5671 5674 5676 5678 5679 5680 5680 5681 5681 5681 5680 5680 5679 5679 5677 5677 5675 5674 5673 5671 5669 5668 5665 5663 5661 5658 5655
5566 5573 5575 5591 5600 5605 5612 5619 5625 5631 5638 5642 5646 5650 5653 5656 5659 5661 5664 5667 5669 5670 5671 5671 5672 5672 5672 5671 5671 5670 5669 5668 5667 5666 5665 5663 5662 5660 5658 5655 5653 5650 5648 5644
5556 5562 5569 5581 5591 5598 5603 5609 5616 5622 5628 5632 5635 5637 5642 5646 5649 5652 5655 5657 5659 5660 5661 5662 5663 5663 5663 5662 5662 5661 5660 5659 5658 5657 5655 5654 5652 5650 5648 5645 5643 5640 5637 5633
5547 5553 5561 5577 5585 5589 5593 5598 5608 5612 5618 5622 5624 5627 5635 5638 5640 5643 5645 5647 5649 5651 5652 5653 5654 5654 5654 5653 5653 5652 5651 5650 5649 5647 5646 5644 5642 5640 5638 5635 5632 5629 5626 5622
5538 5544 5555 5568 5574 5577 5583 5595 5602 5604 5608 5612 5615 5621 5627 5627 5630 5632 5635 5638 5640 5641 5643 5644 5644 5644 5644 5644 5644 5643 5642 5640 5639 5638 5636 5634 5632 5630 5627 5624 5621 5618 5615 5611
5530 5538 5551 5560 5565 5571 5579 5587 5591 5595 5598 5603 5608 5612 5615 5618 5620 5623 5626 5629 5630 5632 5634 5634 5635 5635 5635 5635 5634 5633 5632 5631 5629 5628 5626 5624 5622 5619 5616 5613 5610 5607 5603 5599
5526 5537 5546 5551 5558 5564 5569 5575 5580 5584 5590 5594 5598 5602 5605 5609 5612 5614 5617 5619 5621 5623 5624 5625 5625 5625 5625 5625 5624 5623 5622 5621 5619 5618 5616 5613 5611 5608 5605 5602 5599 5595 5591 5587
5518 5528 5536 5542 5548 5554 5560 5566 5570 5575 5581 5585 5589 5592 5596 5599 5602 5605 5608 5610 5612 5613 5614 5615 5615 5616 5615 5615 5614 5613 5612 5611 5609 5607 5605 5603 5600 5597 5594 5591 5587 5583 5579 5574
5511 5520 5527 5533 5540 5546 5552 5557 5562 5567 5572 5576 5580 5584 5587 5590 5593 5596 5598 5601 5602 5604 5605 5605 5605 5605 5605 5605 5604 5603 5602 5600 5599 5596 5594 5592 5589 5586 5582 5579 5574 5571 5566 5561
5506 5515 5520 5526 5532 5538 5543 5549 5554 5559 5564 5568 5571 5575 5578 5581 5584 5587 5589 5591 5593 5594 5595 5595 5595 5595 5595 5595 5594 5593 5592 5590 5588 5586 5583 5580 5577 5574 5570 5566 5562 5557 5552 5548
5499 5504 5510 5516 5522 5528 5534 5540 5546 5551 5555 5559 5563 5566 5569 5572 5575 5578 5580 5581 5583 5584 5585 5585 5585 5585 5585 5584 5583 5582 5581 5579 5577 5574 5572 5569 5565 5562 5558 5553 5549 5544 5539 5533
5489 5495 5502 5509 5515 5521 5526 5532 5537 5542 5547 5551 5555 5558 5561 5564 5566 5569 5570 5572 5573 5574 5575 5575 5575 5575 5575 5574 5573 5571 5570 5568 5566 5563 5560 5557 5553 5549 5545 5541 5536 5531 5525 5519
5482 5489 5496 5502 5508 5513 5518 5524 5529 5534 5539 5543 5546 5549 5552 5555 5557 5559 5561 5562 5563 5564 5565 5565 5565 5565 5564 5563 5562 5560 5559 5556 5554 5551 5548 5544 5541 5536 5532 5527 5523 5517 5511 5505
5475 5481 5488 5494 5500 5505 5511 5516 5522 5526 5530 5534 5538 5541 5543 5546 5548 5550 5551 5553 5554 5554 5555 5555 5555 5554 5554 5552 5551 5549 5547 5545 5542 5539 5535 5532 5528 5523 5519 5514 5508 5502 5496 5490
5468 5475 5481 5487 5492 5498 5504 5509 5514 5518 5522 5526 5529 5532 5535 5537 5539 5541 5542 5543 5544 5544 5545 5545 5544 5543 5543 5541 5540 5538 5535 5533 5530 5527 5523 5519 5515 5510 5505 5499 5494 5488 5481 5474
5461 5468 5474 5479 5485 5490 5495 5500 5505 5509 5513 5517 5520 5523 5526 5528 5530 5531 5532 5533 5534 5534 5534 5534 5533 5532 5531 5530 5528 5526 5523 5521 5517 5514 5510 5506 5501 5496 5491 5485 5479 5472 5466 5458
5455 5460 5465 5471 5477 5482 5487 5492 5497 5501 5505 5508 5511 5514 5517 5519 5521 5522 5523 5524 5524 5524 5524 5523 5523 5522 5520 5518 5516 5514 5511 5508 5505 5501 5497 5492 5487 5482 5476 5470 5464 5457 5450 5443
5448 5453 5458 5463 5469 5475 5480 5484 5488 5492 5496 5499 5502 5505 5508 5509 5511 5512 5513 5514 5514 5514 5513 5513 5512 5510 5509 5507 5504 5502 5499 5496 5492 5488 5483 5478 5473 5467 5461 5455 5448 5442 5434 5427
5441 5446 5451 5456 5461 5466 5471 5476 5480 5483 5487 5490 5493 5496 5498 5500 5501 5503 5503 5504 5504 5503 5503 5502 5501 5499 5497 5495 5493 5490 5487 5483 5479 5474 5470 5464 5459 5453 5446 5440 5433 5426 5419 5411
5434 5439 5444 5449 5454 5458 5463 5467 5471 5475 5478 5481 5484 5487 5489 5490 5492 5493 5493 5493 5493 5493 5492 5491 5489 5487 5485 5483 5480 5477 5474 5470 5465 5460 5455 5450 5444 5438 5431 5425 5418 5410 5403 5396
5428 5432 5437 5442 5447 5451 5455 5459 5463 5467 5470 5473 5475 5477 5479 5480 5481 5482 5483 5483 5482 5481 5480 5479 5477 5476 5473 5470 5467 5464 5460 5456 5451 5446 5441 5435 5429 5423 5416 5409 5403 5396 5389 5382
5422 5426 5431 5435 5439 5443 5447 5451 5455 5458 5461 5463 5466 5468 5469 5470 5471 5472 5472 5471 5471 5470 5469 5467 5465 5463 5460 5457 5454 5450 5446 5442 5437 5431 5426 5420 5414 5408 5401 5395 5388 5381 5374 5368
5416 5420 5424 5428 5432 5436 5440 5443 5446 5449 5451 5454 5456 5458 5459 5460 5461 5461 5461 5461 5460 5459 5457 5455 5453 5451 5448 5444 5441 5437 5432 5427 5422 5417 5411 5405 5399 5392 5386 5380 5373 5367 5360 5353
5411 5415 5418 5422 5426 5429 5432 5435 5438 5440 5442 5444 5446 5448 5449 5450 5450 5451 5450 5450 5449 5447 5446 5443 5441 5438 5435 5431 5427 5422 5417 5412 5407 5401 5395 5389 5383 5377 5371 5365 5358 5351 5345 5338
5405 5409 5412 5416 5419 5422 5425 5427 5430 5432 5434 5436 5437 5438 5439 5440 5440 5440 5439 5438 5437 5435 5433 5431 5428 5425 5421 5417 5412 5407 5402 5397 5391 5386 5380 5374 5368 5362 5356 5349 5343 5336 5329 5324
Wind_Speed
52 52 50 49 47 47 47 45 44 40 39 35 34 33 32 32 32 31 30 29 28 28 28 28 28 28 29 29 29 30 30 30 31 31 32 33 33 34 34 35 36 37 38 38
52 51 52 52 50 48 47 44 42 41 39 35 35 35 34 33 32 31 30 29 29 29 28 28 28 28 29 29 30 30 30 30 31 32 33 33 34 34 35 36 36 37 38 39
50 50 52 54 51 49 47 43 41 41 36 35 36 36 34 33 32 32 31 30 29 29 29 29 28 28 29 30 30 30 31 31 32 32 33 34 34 35 35 37 38 38 39 40
49 50 52 50 46 46 45 42 41 39 35 36 35 35 34 34 33 33 32 31 30 29 29 29 29 29 29 30 30 30 31 31 32 32 33 34 34 35 36 37 38 39 40 41
50 52 51 48 45 44 44 43 40 38 36 36 35 36 36 34 34 33 32 31 30 30 30 29 30 30 30 30 30 30 31 31 32 33 33 34 34 35 36 37 38 40 41 42
50 51 50 44 41 40 43 43 38 38 36 36 36 38 34 32 33 33 33 32 31 30 30 30 30 30 30 30 30 31 31 31 32 33 33 34 35 36 37 38 39 41 42 43
49 47 46 42 41 42 43 37 35 36 35 35 36 34 31 33 33 33 33 31 30 30 30 30 30 30 30 30 31 31 32 32 33 33 34 35 36 37 38 39 41 42 43 43
47 47 46 41 40 40 35 33 35 35 35 35 34 33 33 33 33 33 32 30 30 30 30 30 30 30 30 31 31 32 32 32 33 34 35 36 37 38 39 40 41 42 43 44
43 42 40 38 37 36 35 34 34 35 35 34 34 33 32 32 32 32 31 31 30 30 30 30 30 30 31 31 32 32 32 33 34 35 36 37 38 39 40 41 42 43 44 46
42 41 39 36 35 34 34 33 34 34 35 35 33 32 32 32 31 31 31 31 31 31 31 31 31 32 31 31 32 32 33 34 35 36 37 38 39 40 41 42 43 44 46 47
42 39 38 37 35 33 33 33 33 33 33 33 33 32 32 31 31 31 31 31 31 31 31 32 32 32 32 32 33 34 35 35 36 37 38 38 40 41 42 43 44 45 47 48
41 37 36 35 35 35 35 33 32 32 32 31 31 31 31 31 31 31 31 31 30 31 32 32 32 32 33 33 34 35 36 36 37 38 39 40 41 42 43 44 45 46 48 49
41 39 39 39 39 38 37 35 33 32 32 31 30 30 30 30 30 31 31 31 31 32 32 32 32 33 33 34 35 36 37 37 38 39 40 41 42 43 44 45 47 48 50 51
41 41 41 40 39 39 38 36 35 33 32 30 30 30 30 30 30 31 31 31 31 32 32 32 33 34 34 35 35 36 37 38 39 40 41 42 43 44 46 47 48 49 51 53
39 39 40 39 39 39 38 37 35 33 32 31 30 29 29 30 30 31 31 32 32 32 33 34 34 34 35 36 36 38 39 39 40 41 42 44 45 46 47 48 50 51 53 55
37 37 38 38 37 37 36 35 33 32 31 30 30 30 30 30 31 31 32 32 32 33 34 34 35 35 36 36 37 38 39 40 41 42 44 45 46 47 49 50 52 53 55 56
35 35 36 37 37 36 35 34 33 32 31 31 31 30 30 30 30 31 32 32 33 33 34 35 35 36 36 37 38 39 40 41 42 43 45 46 47 49 50 52 53 55 56 57
35 34 35 36 36 35 35 35 34 33 33 33 32 32 31 31 31 32 32 32 33 33 34 35 36 37 37 38 39 40 41 42 43 44 46 47 49 50 52 53 55 56 57 59
34 34 34 35 36 36 35 34 34 34 34 34 33 33 32 32 32 32 32 32 33 33 34 35 36 37 38 39 40 40 41 42 44 46 47 48 50 51 53 55 56 57 58 59
32 32 33 35 36 35 35 34 34 34 34 34 33 33 33 33 33 33 33 33 33 34 34 35 36 37 37 38 39 41 42 44 45 47 48 49 51 53 54 55 56 57 58 58
30 30 31 33 34 34 33 33 32 32 32 33 32 32 32 33 33 32 32 33 33 34 35 36 37 37 38 39 40 42 44 45 47 48 49 51 53 54 55 56 57 57 57 56
29 29 30 31 32 32 32 32 31 31 31 31 31 31 32 32 32 32 32 33 34 35 36 36 37 38 39 40 42 43 45 46 48 49 51 53 54 54 55 56 56 56 56 55
27 28 29 30 31 31 32 32 32 32 32 31 31 31 31 31 32 32 32 33 34 35 36 37 38 39 40 41 43 44 46 47 49 51 52 53 53 54 55 55 55 55 55 55
26 27 27 28 29 30 31 32 32 32 32 31 32 32 32 32 32 32 33 34 35 35 36 37 38 40 41 43 44 46 48 49 51 52 53 53 54 55 54 54 54 55 55 54
26 26 26 26 27 28 29 30 30 31 32 32 32 32 32 32 32 33 33 34 35 36 37 38 39 41 43 44 46 48 49 51 52 53 53 54 54 54 54 54 55 55 54 53
25 25 25 26 27 27 28 28 29 30 31 32 32 32 32 33 33 33 34 35 36 37 38 39 40 42 44 45 47 49 51 52 53 53 53 54 54 54 54 54 54 54 53 52
24 24 25 25 25 26 27 27 28 28 29 29 30 31 32 32 33 34 34 35 36 38 39 41 42 43 45 47 49 50 52 53 53 53 54 55 55 54 54 53 53 52 51 51
Wind_Direction
224 224 226 227 229 231 234 236 239 239 240 240 243 246 247 248 249 250 252 254 256 258 259 262 264 266 268 270 272 273 274 275 275 275 276 278 279 280 280 281 282 283 284 286
222 223 226 227 227 229 232 234 237 237 237 238 242 244 245 246 248 249 252 254 255 258 260 262 264 267 269 271 272 273 273 273 274 275 277 278 279 280 280 282 283 284 285 286
221 221 225 226 226 229 231 232 235 237 236 236 239 242 245 246 248 249 251 253 255 258 260 262 265 267 269 270 272 273 273 274 275 276 278 279 280 280 282 283 284 285 286 287
221 221 226 224 226 230 232 232 234 236 234 234 238 241 243 245 247 249 251 252 255 258 261 262 265 267 269 271 272 273 273 274 275 277 278 279 280 281 282 283 285 286 286 287
222 225 227 224 225 228 231 231 231 233 233 234 236 239 240 243 247 249 251 253 255 257 259 262 264 266 268 270 272 273 274 275 277 278 279 280 281 282 284 285 286 286 287 288
220 223 226 225 225 228 231 230 228 233 234 235 237 240 240 244 247 248 250 252 253 255 258 261 264 266 268 270 271 273 274 275 277 278 280 281 282 284 285 286 286 287 289 290
221 223 224 223 224 228 231 229 230 234 236 238 240 243 241 242 244 246 249 251 253 255 258 261 264 266 268 270 271 273 274 276 278 279 280 282 283 285 286 287 288 289 290 291
220 223 221 222 224 229 232 232 232 234 236 239 240 240 241 242 244 246 249 251 253 255 258 261 264 267 269 271 272 273 275 276 278 280 282 284 285 287 288 289 290 291 292 293
221 221 220 223 226 227 229 231 232 233 235 237 238 239 241 243 244 246 248 249 252 255 258 261 264 267 269 271 273 274 275 277 279 281 283 285 286 288 289 290 292 292 293 294
217 218 219 221 223 225 227 230 231 232 234 236 238 238 240 242 244 245 248 250 253 256 259 262 264 267 269 271 274 275 277 279 281 283 284 286 288 289 291 292 293 294 294 295
215 216 218 220 223 225 227 228 229 230 232 235 237 239 241 242 243 246 248 251 253 257 260 262 265 267 269 271 274 276 278 280 282 284 285 287 289 290 291 292 293 294 295 296
217 219 220 219 223 224 225 227 229 231 232 235 238 240 241 242 244 247 249 252 255 258 261 263 264 267 269 272 275 277 279 281 283 285 286 288 290 291 292 293 294 295 296 297
217 219 220 220 221 223 225 228 230 231 232 235 238 239 240 241 243 247 250 254 256 259 262 263 266 268 271 274 276 278 280 282 284 286 287 289 290 292 293 294 296 297 298 299
217 220 220 220 221 222 224 227 229 230 232 235 238 240 241 242 245 249 252 255 258 260 262 264 267 270 273 276 278 280 282 284 285 287 289 290 292 293 294 295 297 298 300 301
218 220 219 219 219 221 224 227 229 230 231 234 239 240 241 244 247 250 253 256 259 261 263 265 268 272 275 278 280 282 284 286 287 289 290 292 293 295 296 297 298 300 301 302
217 218 219 219 220 222 225 227 229 230 230 233 238 242 243 245 248 252 255 257 260 262 264 267 270 273 276 279 281 283 285 287 289 291 292 294 295 297 298 299 300 302 303 304
219 219 219 221 222 224 225 227 229 230 231 234 239 243 246 249 252 255 256 258 261 264 266 269 272 274 277 280 282 285 287 289 291 292 294 295 297 298 299 301 302 303 304 305
218 218 218 221 223 224 225 226 229 232 234 237 239 243 246 250 253 255 258 260 263 266 269 271 273 276 279 282 284 286 289 291 292 294 295 297 298 299 301 302 303 304 305 306
218 218 218 219 221 222 226 229 232 234 236 238 241 245 248 251 254 256 259 261 264 268 271 274 277 279 282 284 286 288 290 292 294 296 297 298 300 301 302 303 304 305 306 307
219 218 218 219 220 222 226 230 233 235 237 239 240 243 247 251 254 257 260 263 266 270 273 277 279 282 284 286 288 290 292 294 296 297 299 300 301 302 303 304 305 306 306 307
220 221 220 219 221 223 227 230 233 235 237 239 241 244 249 252 255 258 262 265 269 272 275 278 281 283 285 287 290 292 294 296 297 298 300 301 303 303 304 305 306 306 307 307
219 220 221 222 223 226 228 231 233 236 239 241 244 247 251 254 258 261 264 267 270 273 276 279 282 284 286 288 291 293 295 297 298 300 301 303 303 304 305 306 306 307 307 307
220 221 221 221 223 226 230 234 237 239 242 244 247 250 253 256 260 263 266 268 271 274 277 280 283 286 288 290 292 294 296 298 299 301 302 303 304 305 306 306 307 307 307 307
223 222 222 222 225 228 231 236 239 242 243 245 248 252 255 258 260 263 266 270 273 275 278 282 285 288 290 293 294 295 297 299 301 302 303 303 304 305 306 306 307 307 307 306
222 223 223 224 227 230 235 239 241 243 244 246 249 253 256 257 260 264 268 271 275 278 282 285 287 289 292 294 296 297 299 300 302 303 303 304 305 306 306 306 307 307 306 305
222 223 224 227 230 233 237 240 242 244 245 247 248 251 255 258 262 266 269 273 277 280 283 286 289 292 294 296 298 299 300 301 302 303 304 305 306 306 306 306 306 306 305 305
223 225 228 231 233 235 237 239 241 243 246 248 250 253 257 260 264 268 272 275 278 282 285 288 290 293 295 297 299 300 301 302 303 303 304 305 305 305 305 306 306 306 305 304